Date,TemperatureHighF,TemperatureAvgF,TemperatureLowF,DewpointHighF,DewpointAvgF,DewpointLowF,HumidityHigh,HumidityAvg,HumidityLow,PressureMaxIn,PressureMinIn,WindSpeedMaxMPH,WindSpeedAvgMPH,GustSpeedMaxMPH,PrecipitationSumIn
2013-1-1,22,15,6,15,8,2,86,75,66,30.10,29.93,19,10,26,0.00
2013-1-2,20,18,15,17,14,9,92,87,67,30.13,29.92,14,7,23,0.00
2013-1-3,29,23,18,25,20,16,96,87,75,30.08,29.83,36,10,36,0.00
2013-1-4,32,29,28,26,24,21,86,80,71,30.01,29.72,53,23,53,0.01
2013-1-5,32,29,25,28,23,19,91,81,69,30.18,29.84,19,6,19,0.00
2013-1-6,30,24,17,28,21,12,96,86,71,30.23,29.78,19,7,19,0.00
2013-1-7,40,31,18,31,24,14,91,77,62,30.25,29.84,34,12,41,0.00
2013-1-8,40,35,33,33,31,28,94,84,69,30.11,29.87,33,9,33,0.00
2013-1-9,38,35,33,34,30,26,95,81,72,30.32,29.74,43,18,43,0.00
2013-1-10,39,35,30,35,30,26,91,80,65,30.51,30.17,26,6,26,0.00
2013-1-11,42,38,36,41,37,33,99,95,84,30.18,29.64,23,5,25,2.09
2013-1-12,49,42,34,45,39,30,99,89,70,29.90,29.60,38,12,38,0.01
2013-1-13,34,31,28,31,29,26,96,91,84,29.90,29.79,14,6,14,0.01
2013-1-14,28,23,20,26,17,13,94,77,62,30.31,29.85,28,14,28,0.00
2013-1-15,28,22,16,22,16,9,93,76,62,30.33,30.01,34,14,34,0.01
2013-1-16,30,27,16,28,22,9,95,81,72,30.01,29.53,41,19,41,0.01
2013-1-17,16,8,-1,9,2,-6,82,74,59,30.26,29.92,33,10,33,0.00
2013-1-18,27,17,10,26,13,4,96,85,71,30.30,29.72,26,8,28,0.00
2013-1-19,33,25,20,32,24,18,98,95,92,29.82,29.30,29,6,29,0.00
2013-1-20,27,9,2,26,4,-5,94,81,67,30.09,29.33,37,12,37,0.00
2013-1-21,10,5,0,5,1,-4,90,83,75,30.08,29.85,13,3,13,0.00
2013-1-22,0,-7,-13,-4,-14,-19,83,70,56,30.24,30.00,12,3,12,0.00
2013-1-23,8,2,-4,3,-2,-11,87,83,73,30.28,30.05,15,5,15,0.00
2013-1-24,6,-2,-11,3,-8,-17,88,76,68,30.65,30.28,17,5,17,0.00
2013-1-25,19,13,4,16,10,0,92,88,82,30.48,30.01,18,5,18,0.00
2013-1-26,24,15,7,16,11,4,92,84,67,30.42,30.05,16,4,17,0.00
2013-1-27,29,22,11,27,19,8,95,88,82,30.43,30.13,25,8,25,0.00
2013-1-28,32,30,28,32,30,27,98,97,95,30.13,29.80,21,4,21,0.57
2013-1-29,38,31,24,37,30,24,99,97,95,29.99,29.43,21,5,21,2.84
2013-1-30,35,30,12,34,29,10,99,97,90,29.43,29.04,26,8,26,1.65
2013-1-31,12,7,3,10,3,-3,90,83,77,29.83,29.11,23,11,23,0.00
2013-2-1,14,6,0,9,1,-5,91,80,75,30.10,29.83,14,4,14,0.00
2013-2-2,12,8,4,9,2,-1,91,77,56,30.05,30.00,16,7,16,0.00
2013-2-3,17,11,2,15,7,-1,92,84,70,30.01,29.75,25,7,25,0.00
2013-2-4,13,6,-5,6,1,-8,90,80,66,30.01,29.90,12,4,12,0.00
2013-2-5,22,15,7,20,11,1,93,85,72,29.94,29.67,25,7,25,0.00
2013-2-6,13,6,-2,9,2,-7,90,81,72,30.29,29.93,26,6,26,0.00
2013-2-7,15,11,7,13,8,4,91,89,86,30.32,30.19,31,14,31,0.01
2013-2-8,21,13,4,12,8,0,88,78,64,30.41,30.18,22,6,22,0.00
2013-2-9,24,8,-6,20,4,-10,95,84,75,30.47,30.23,18,5,18,0.00
2013-2-10,34,27,15,32,24,13,97,88,81,30.24,29.61,28,6,28,0.00
2013-2-11,38,34,27,37,32,24,98,95,87,29.63,29.33,40,13,40,0.34
2013-2-12,28,26,24,24,22,19,92,86,77,29.88,29.63,33,14,34,0.00
2013-2-13,34,30,25,30,26,20,95,87,80,29.81,29.62,22,7,22,0.00
2013-2-14,35,31,26,33,30,24,98,96,93,29.71,29.58,22,4,22,0.31
2013-2-15,26,16,11,25,11,6,95,82,71,30.10,29.71,20,9,20,0.00
2013-2-16,13,7,0,10,1,-3,91,78,60,30.16,30.07,18,5,18,0.00
2013-2-17,16,5,-5,8,-1,-8,89,76,57,30.22,30.14,10,2,10,0.00
2013-2-18,33,26,12,32,20,6,96,80,72,30.14,29.52,42,10,42,1.39
2013-2-19,37,27,9,36,25,3,97,92,75,29.73,29.14,51,20,51,3.92
2013-2-20,11,7,3,6,1,-4,80,76,71,30.32,29.73,28,14,28,0.00
2013-2-21,19,9,1,13,4,-4,89,79,73,30.48,30.31,16,6,16,0.00
2013-2-22,27,18,10,26,15,7,96,90,86,30.40,29.83,38,14,38,0.02
2013-2-23,31,28,23,30,27,22,97,94,86,29.83,29.75,22,4,22,0.45
2013-2-24,33,25,15,28,22,14,97,89,76,30.10,29.81,19,5,19,0.01
2013-2-25,32,29,25,28,25,23,92,88,78,30.19,30.10,10,2,10,0.00
2013-2-26,32,29,26,27,26,24,95,86,72,30.19,29.85,30,9,30,0.00
2013-2-27,35,32,29,32,29,25,96,90,83,29.85,29.68,27,11,27,0.12
2013-2-28,34,28,19,31,23,12,93,80,64,30.08,29.68,27,10,27,0.00
2013-3-1,29,19,12,15,11,8,83,72,54,30.22,30.07,20,8,20,0.00
2013-3-2,24,16,11,15,10,6,84,77,61,30.20,30.08,22,7,22,0.00
2013-3-3,21,13,6,12,8,2,89,78,65,30.10,30.02,14,6,14,0.00
2013-3-4,26,14,2,14,7,-1,91,74,48,30.16,30.08,11,4,11,0.00
2013-3-5,31,22,13,24,15,9,86,73,56,30.19,30.06,21,6,21,0.00
2013-3-6,40,32,28,30,27,24,96,82,68,30.21,30.10,19,6,21,0.00
2013-3-7,33,27,23,28,24,20,96,88,79,30.40,30.19,20,9,20,0.00
2013-3-8,40,30,23,32,27,21,96,90,71,30.48,30.36,13,3,13,0.00
2013-3-9,40,33,24,32,29,23,98,87,61,30.37,30.04,24,5,24,0.06
2013-3-10,37,35,33,36,34,32,98,97,94,30.04,29.81,27,6,27,2.78
2013-3-11,40,36,34,40,36,33,99,98,97,29.88,29.34,38,11,38,5.49
2013-3-12,35,27,22,35,26,20,99,95,85,29.81,29.35,21,9,21,1.30
2013-3-13,24,20,14,20,14,9,93,80,63,30.12,29.80,31,13,31,0.00
2013-3-14,30,22,13,24,11,1,84,64,46,30.22,29.94,20,8,20,0.00
2013-3-15,32,25,18,29,19,8,96,77,60,29.95,29.75,29,16,29,0.00
2013-3-16,18,11,6,8,3,1,82,72,63,30.03,29.95,18,9,21,0.00
2013-3-17,21,14,7,17,4,-3,90,67,51,30.35,29.98,20,6,26,0.00
2013-3-18,31,20,8,26,15,4,95,82,67,30.27,29.55,29,13,39,0.01
2013-3-19,30,27,25,29,25,22,97,92,83,29.58,29.40,28,16,39,0.00
2013-3-20,26,26,24,23,21,20,89,84,80,29.73,29.72,28,19,28,0.00
2013-3-23,36,27,17,25,22,16,95,82,62,30.08,29.99,19,6,24,0.00
2013-3-24,37,30,22,24,21,19,89,71,49,30.08,29.85,12,4,23,0.00
2013-3-25,41,35,29,29,26,23,82,70,48,29.94,29.83,16,7,23,0.00
2013-3-26,40,36,32,29,26,20,82,70,43,30.03,29.94,22,10,26,0.00
2013-3-27,39,34,30,30,28,25,91,80,63,30.13,30.02,17,10,21,0.00
2013-3-28,41,35,31,31,27,18,94,75,44,30.21,30.14,16,7,18,0.00
2013-3-29,44,35,26,30,25,17,95,69,33,30.24,30.16,16,6,16,0.00
2013-3-30,47,37,30,34,26,18,89,66,33,30.18,29.79,25,5,25,0.01
2013-3-31,39,35,26,37,34,20,98,95,79,29.79,29.51,34,10,34,0.17
2013-4-1,26,21,17,21,15,9,93,77,60,30.02,29.61,35,19,35,0.00
2013-4-2,25,20,14,19,15,12,94,81,61,30.20,30.01,33,14,35,0.00
2013-4-3,33,25,18,22,14,8,89,64,37,30.37,30.20,22,10,22,0.00
2013-4-4,37,33,29,34,27,17,97,78,56,30.25,29.88,42,15,44,0.06
2013-4-5,33,28,24,27,18,12,87,68,52,30.22,29.95,24,12,24,0.00
2013-4-6,34,29,21,33,25,17,97,86,62,30.23,29.64,25,7,42,0.28
2013-4-7,38,35,33,35,32,29,97,89,79,30.03,29.39,38,13,38,0.52
2013-4-8,39,35,31,33,31,28,96,86,73,30.04,29.85,24,5,24,0.70
2013-4-9,40,36,33,36,34,32,98,93,83,30.09,29.97,12,4,12,0.01
2013-4-10,43,36,32,32,27,17,94,72,43,30.14,30.03,20,6,20,0.00
2013-4-11,35,29,25,24,18,12,88,63,56,30.20,29.96,42,13,42,0.01
2013-4-12,31,28,25,29,26,23,96,93,81,29.97,29.66,35,12,35,0.00
2013-4-13,38,30,27,31,28,26,97,92,69,29.85,29.67,27,6,27,0.02
2013-4-14,42,33,29,30,28,24,95,80,53,30.08,29.85,16,7,16,0.00
2013-4-15,47,38,33,47,36,28,98,91,77,30.04,29.78,30,8,30,0.40
2013-4-16,45,38,34,44,33,30,95,81,64,30.29,29.79,26,12,26,0.00
2013-4-17,44,37,30,32,30,28,95,78,59,30.44,30.15,20,6,20,0.00
2013-4-18,40,37,35,39,35,28,98,93,67,30.16,29.46,30,10,30,3.73
2013-4-19,42,36,27,41,33,22,99,89,68,29.50,29.19,63,16,63,1.75
2013-4-20,29,24,18,22,16,9,82,70,59,30.44,29.50,35,19,41,0.00
2013-4-21,39,30,20,30,22,10,93,73,35,30.63,30.43,26,5,26,0.00
2013-4-22,50,42,35,36,31,26,83,66,43,30.44,30.16,32,9,32,0.00
2013-4-23,45,42,40,38,34,31,90,74,60,30.16,29.87,31,6,31,0.05
2013-4-24,40,35,32,32,29,24,94,79,56,29.97,29.82,15,10,21,0.03
2013-4-25,38,35,32,37,31,25,97,86,68,30.25,29.91,36,9,36,0.06
2013-4-26,50,41,32,39,33,28,93,74,50,30.33,30.16,22,6,22,0.22
2013-4-27,47,36,34,44,35,33,98,96,91,30.21,30.18,12,5,13,0.00
2013-10-13,61,55,50,58,48,42,94,78,69,30.33,29.95,17,11,26,0.03
2013-10-14,57,50,45,44,43,39,92,77,54,30.42,30.28,10,4,15,0.00
2013-10-15,58,51,44,53,47,41,97,87,76,30.28,29.72,10,5,27,0.72
2013-10-16,57,53,50,56,51,46,98,93,84,29.74,29.59,21,12,33,0.06
2013-10-17,50,48,46,47,44,42,94,87,78,29.81,29.70,18,7,23,0.00
2013-10-18,52,48,44,46,43,39,87,81,72,29.76,29.69,13,7,23,0.00
2013-10-19,49,46,44,44,39,31,94,75,52,29.75,29.60,25,12,25,0.01
2013-10-20,51,45,39,44,40,37,94,84,61,29.80,29.67,24,4,24,0.12
2013-10-21,49,45,36,47,40,28,98,85,65,29.73,29.57,32,14,32,0.36
2013-10-22,43,38,33,36,32,26,97,80,59,29.80,29.59,34,15,34,0.07
2013-10-23,40,36,32,35,31,25,93,82,71,29.80,29.74,25,12,30,0.01
2013-10-24,43,39,36,38,34,32,93,84,73,30.05,29.76,26,13,26,0.00
2013-10-25,44,39,35,36,33,29,92,77,59,30.17,29.74,39,11,39,0.02
2013-10-26,45,42,38,42,37,30,93,82,64,29.86,29.48,43,19,43,0.11
2013-10-27,43,39,36,40,36,32,94,87,72,29.93,29.83,21,8,21,0.13
2013-10-28,42,34,29,38,26,21,88,72,58,30.46,29.93,26,8,26,0.00
2013-10-29,36,32,27,32,26,22,94,78,65,30.50,30.23,14,3,14,0.00
2013-10-30,49,42,34,46,40,32,96,92,85,30.23,29.87,16,3,16,0.02
2013-10-31,56,51,49,55,50,46,99,97,83,29.88,28.97,25,4,25,0.31
2013-11-1,54,47,39,54,44,36,99,92,83,29.63,28.80,32,10,37,0.56
2013-11-2,39,36,32,36,29,20,90,76,59,30.15,29.63,21,7,21,0.00
2013-11-3,39,33,29,33,24,19,82,68,54,30.43,30.15,15,4,15,0.00
2013-11-4,46,42,39,38,35,30,81,76,69,30.45,30.18,38,10,38,0.00
2013-11-5,54,48,42,47,42,35,94,81,72,30.22,30.00,24,8,28,0.04
2013-11-6,50,45,37,50,44,34,98,94,84,30.00,29.53,31,13,31,0.43
2013-11-7,39,36,34,35,33,31,94,88,75,29.99,29.86,27,16,27,0.01
2013-11-8,37,35,33,32,30,26,94,82,70,30.16,29.99,18,7,19,0.00
2013-11-9,44,40,35,42,37,30,96,89,72,30.08,29.57,41,11,41,0.24
2013-11-10,41,38,34,37,32,28,92,81,68,30.12,29.63,42,20,42,0.00
2013-11-11,40,30,21,36,25,15,92,82,72,30.32,29.87,37,18,37,0.03
2013-11-12,30,25,20,23,18,13,87,74,62,30.48,30.32,31,17,31,0.00
2013-11-13,43,35,28,36,26,15,85,71,56,30.38,29.78,53,16,53,0.00
2013-11-14,44,42,39,39,36,34,93,80,70,29.82,29.76,49,15,53,0.05
2013-11-15,48,42,39,41,39,37,97,87,75,29.92,29.79,18,5,18,0.00
2013-11-16,48,43,38,47,41,35,96,90,79,29.96,29.54,30,6,30,0.08
2013-11-17,55,52,48,54,51,47,98,96,95,29.56,29.16,36,11,36,0.43
2013-11-18,45,35,30,43,31,23,95,85,72,29.99,28.98,44,35,63,0.12
2013-11-19,30,27,24,24,21,19,90,80,72,30.39,30.01,27,5,35,0.00
2013-11-20,41,36,26,35,31,24,91,82,75,30.40,30.22,31,6,31,0.00
2013-11-21,42,40,38,38,36,33,97,87,75,30.23,30.14,16,3,21,0.00
2013-11-22,39,31,25,38,29,21,98,91,79,30.30,30.11,22,10,22,0.05
2013-11-23,29,19,13,26,13,4,93,77,60,30.46,30.14,36,18,36,0.00
2013-11-24,23,16,9,18,11,1,87,79,69,30.55,30.17,28,6,28,0.00
2013-11-25,36,31,23,32,27,18,95,83,72,30.17,29.76,49,19,49,0.00
2013-11-26,36,30,22,33,26,17,93,85,73,29.98,29.83,24,11,24,0.00
2013-11-27,23,18,14,19,11,8,90,74,58,30.17,29.95,28,10,28,0.00
2013-11-28,20,17,14,16,11,7,85,77,67,30.48,30.17,13,4,13,0.00
2013-11-29,31,24,17,23,19,12,91,79,66,30.64,30.48,19,2,19,0.00
2013-11-30,33,31,29,32,28,21,97,87,72,30.50,30.02,34,7,37,0.00
2013-12-1,32,29,27,31,26,22,96,87,80,30.13,30.02,18,3,18,0.00
2013-12-2,29,26,22,24,22,18,91,85,71,30.02,29.91,14,2,14,0.06
2013-12-3,26,23,19,25,20,16,94,89,83,30.02,29.97,25,7,25,0.00
2013-12-4,42,28,24,41,27,22,98,95,91,30.02,29.48,38,14,38,0.34
2013-12-5,45,33,19,45,28,10,99,82,66,30.00,29.40,57,26,57,0.07
2013-12-6,24,20,16,15,12,9,81,73,66,30.28,30.00,45,25,45,0.00
2013-12-7,20,17,15,13,10,6,81,72,60,30.49,30.28,36,21,36,0.00
2013-12-8,24,17,11,23,10,-1,94,75,55,30.52,30.08,28,7,28,0.00
2013-12-9,28,23,10,26,20,4,96,90,71,30.08,29.67,41,14,41,0.00
2013-12-10,15,11,9,12,7,4,91,84,73,29.97,29.76,42,12,42,0.00
2013-12-11,13,10,7,7,4,2,81,77,71,30.27,29.97,35,20,35,0.00
2013-12-12,16,12,9,9,6,2,82,75,63,30.25,29.95,41,23,41,0.00
2013-12-13,15,3,-2,10,-3,-8,87,74,62,30.47,29.95,37,5,37,0.00
2013-12-14,11,7,1,8,4,-4,90,86,77,30.49,29.97,25,11,30,0.00
2013-12-15,13,8,1,9,5,-4,90,85,75,30.00,29.72,17,6,17,0.00
2013-12-16,17,1,-9,15,-4,-14,92,79,68,30.19,29.99,15,3,15,0.00
2013-12-17,21,19,17,19,18,14,94,93,89,30.00,29.79,28,3,28,0.00
2013-12-18,26,20,17,23,16,13,94,85,70,29.97,29.75,24,9,24,0.00
2013-12-19,29,24,16,25,21,12,94,87,78,30.07,29.70,19,7,19,0.00
2013-12-20,19,17,14,17,14,11,92,89,84,30.05,29.88,18,7,18,0.00
2013-12-21,23,20,17,18,16,14,93,87,76,30.06,29.84,28,5,28,0.00
2013-12-22,21,14,6,15,11,3,92,85,74,30.10,29.85,36,12,36,0.00
2013-12-23,7,3,-4,4,-1,-8,89,83,78,30.39,30.10,14,5,14,0.00
2013-12-24,3,-5,-11,-4,-10,-22,85,76,57,30.54,30.39,9,2,9,0.00
2013-12-25,23,16,-10,20,13,-14,93,88,75,30.49,30.01,38,9,38,0.00
2013-12-26,22,16,11,16,11,7,90,81,71,30.18,29.99,27,6,27,0.00
2013-12-27,33,19,7,30,15,4,91,85,81,30.23,29.82,17,5,17,0.00
2013-12-28,35,33,27,32,31,25,96,92,88,29.96,29.77,26,8,26,0.00
2013-12-29,27,8,-5,25,5,-10,94,86,78,30.06,29.73,26,10,26,0.00
2013-12-30,11,0,-15,6,-4,-18,86,81,76,30.25,30.06,12,3,15,0.00
2013-12-31,10,7,2,4,2,-3,88,80,63,30.26,29.97,29,10,29,0.00
2014-1-1,2,-6,-12,-2,-12,-17,86,73,59,30.53,30.25,16,4,20,0.00
2014-1-2,-2,-8,-13,-10,-13,-17,85,77,63,30.48,30.37,19,4,19,0.00